Terminal Aerodrome Forecast
Issued by NWS

Home | Current Version | Previous Version | Text Only | Print | Product List | Glossary On
Versions: 1 2 3 4 5 6 7 8 9 10 11 12 13 14 15 16
000
FTAK31 PAJN 260532
TAFASI
TAF
PASI 260532Z 2606/2706 32008KT P6SM VCSH FEW006 BKN016 OVC030
     FM260900 05005KT P6SM VCSH SCT007 OVC015
     FM261300 29004KT P6SM VCSH OVC015
     FM261800 25005KT P6SM -SHRA OVC015
     FM262300 28011KT P6SM VCSH SCT015 BKN030 OVC050=

USA.gov is the U.S. government's official web portal to all federal, state and local government web resources and services.